sat.trackr.live / text

‹ back to catalog

STARLINK-36597

NORAD 67613 · 2026-018AA

PAYLOAD ACTIVE UNKNOWN

§ Identity

Operator
Country
US
Launch date
2026-01-29
Launch site
AFWTR
Launch vehicle
Mass (kg)
RCS (m²)

Purposes: comms

External: N2YO · Heavens-Above · Gunter

§ Orbital elements

Epoch: 2026-05-25T02:31:39.953856Z

Period
93.90 min
Inclination
97.2848°
Eccentricity
0.0000431
Mean motion
15.33471760 rev/d
Perigee alt
465.2 km
Apogee alt
465.8 km
Semi-major
6,843.6 km
B*
9.7348e-4
RAAN
210.2124°
Arg perigee
263.9565°
Mean anomaly
96.1629°
Rev number
1,904

§ Raw data

STARLINK-365971 67613U 26018AA  26145.10532354  .00031510  00000+0  97348-3 0  99942 67613  97.2848 210.2124 0000431 263.9565  96.1629 15.33471760 19043

JSON: /api/v1/satellites/67613 · /tle

For live sub-satellite position, see the globe view (requires WebGL).

§ Visibility from observer

Set your observer location to see the next 7 days of passes ≥ 10°. The values pass through the URL so the page stays shareable.

No JS? Fill the form by hand. The geolocation button needs JavaScript.